THY1825 LTFM-EDDF

Flight info

Callsign THY1825
Flight time 2h 48m
Altitude 34000
Route VADEN1D/35L VADEN N618 BAKLO DCT XANEX DCT UTEKA DCT BABIT DCT GOTAR DCT ABRUK DCT SIMBA DCT AKINI T161 DEBHI DEBHI1B
Aircraft B77L/H-SDE1E2E3FGHIJ2J3J4J5M1RWXY/LB1D1

Departure

Time 2026-05-05 11:50
Airport İstanbul Airport (LTFM)

Arrival

Time 2026-05-05 14:39
Airport Frankfurt Main Airport (EDDF)
Time Latitude Longitude Altitude Speed Heading
2026-05-05 11:21 41.27373 28.72088 338 ft 0 kts 269°
2026-05-05 11:37 41.27373 28.72094 334 ft 3 kts 269°
2026-05-05 11:37 41.27373 28.72130 334 ft 4 kts 272°
2026-05-05 11:38 41.27372 28.72165 333 ft 4 kts 270°
2026-05-05 11:38 41.27373 28.72200 335 ft 4 kts 258°
2026-05-05 11:38 41.27381 28.72231 333 ft 4 kts 238°
2026-05-05 11:38 41.27397 28.72257 333 ft 4 kts 214°
2026-05-05 11:39 41.27419 28.72270 333 ft 4 kts 185°
2026-05-05 11:39 41.27429 28.72271 335 ft 0 kts 179°
2026-05-05 11:44 41.27425 28.72271 334 ft 2 kts 179°
2026-05-05 11:44 41.27374 28.72272 334 ft 6 kts 179°
2026-05-05 11:44 41.27333 28.72273 336 ft 7 kts 179°
2026-05-05 11:44 41.27250 28.72275 335 ft 13 kts 179°
2026-05-05 11:45 41.27158 28.72277 336 ft 13 kts 179°
2026-05-05 11:45 41.27068 28.72279 336 ft 13 kts 179°
2026-05-05 11:45 41.26986 28.72281 338 ft 8 kts 179°
2026-05-05 11:45 41.26930 28.72282 334 ft 8 kts 179°
2026-05-05 11:46 41.26864 28.72283 335 ft 17 kts 179°
2026-05-05 11:46 41.26760 28.72286 334 ft 10 kts 179°
2026-05-05 11:46 41.26716 28.72289 335 ft 6 kts 179°
2026-05-05 11:46 41.26636 28.72289 334 ft 14 kts 180°
2026-05-05 11:47 41.26538 28.72291 336 ft 14 kts 179°
2026-05-05 11:47 41.26442 28.72294 334 ft 9 kts 179°
2026-05-05 11:47 41.26377 28.72295 337 ft 8 kts 179°
2026-05-05 11:47 41.26324 28.72307 333 ft 8 kts 153°
2026-05-05 11:48 41.26296 28.72433 334 ft 5 kts 91°
2026-05-05 11:48 41.26297 28.72481 333 ft 5 kts 79°
2026-05-05 11:48 41.26327 28.72514 334 ft 6 kts 21°
2026-05-05 11:49 41.26368 28.72522 334 ft 5 kts
2026-05-05 11:49 41.26408 28.72522 334 ft 9 kts 359°
2026-05-05 11:49 41.26524 28.72519 335 ft 47 kts 359°
2026-05-05 11:49 41.27398 28.72498 334 ft 137 kts 359°
2026-05-05 11:50 41.28114 28.72478 348 ft 170 kts 358°
2026-05-05 11:50 41.29326 28.72451 774 ft 177 kts 359°
2026-05-05 11:50 41.30573 28.72457 1358 ft 179 kts 359°
2026-05-05 11:50 41.31816 28.72463 2008 ft 180 kts 359°
2026-05-05 11:51 41.33119 28.72474 2522 ft 195 kts 360°
2026-05-05 11:51 41.34548 28.72472 2752 ft 219 kts 355°
2026-05-05 11:51 41.36024 28.71741 2921 ft 239 kts 315°
2026-05-05 11:51 41.37028 28.69940 3471 ft 247 kts 300°
2026-05-05 11:52 41.37920 28.67945 4205 ft 252 kts 300°
2026-05-05 11:52 41.38827 28.65926 5008 ft 255 kts 301°
2026-05-05 11:52 41.39739 28.63922 5790 ft 257 kts 301°
2026-05-05 11:52 41.40682 28.61871 6567 ft 260 kts 301°
2026-05-05 11:53 41.41638 28.59816 7251 ft 266 kts 302°
2026-05-05 11:53 41.42641 28.57676 7864 ft 275 kts 302°
2026-05-05 11:53 41.43663 28.55511 8548 ft 280 kts 302°
2026-05-05 11:53 41.44719 28.53283 9326 ft 283 kts 302°
2026-05-05 11:54 41.45780 28.51053 10080 ft 286 kts 302°
2026-05-05 11:54 41.46866 28.48774 10497 ft 303 kts 302°
2026-05-05 11:54 41.48034 28.46327 10686 ft 328 kts 302°
2026-05-05 11:54 41.49313 28.43647 10891 ft 353 kts 302°
2026-05-05 11:55 41.50651 28.40845 11444 ft 365 kts 302°
2026-05-05 11:55 41.52038 28.37941 12210 ft 373 kts 302°
2026-05-05 11:55 41.53432 28.35022 13111 ft 377 kts 302°
2026-05-05 11:55 41.54853 28.32041 14020 ft 381 kts 302°
2026-05-05 11:56 41.56290 28.29028 14840 ft 386 kts 302°
2026-05-05 11:56 41.57726 28.26011 15644 ft 391 kts 302°
2026-05-05 11:56 41.59201 28.22909 16427 ft 396 kts 302°
2026-05-05 11:56 41.60671 28.19817 17189 ft 400 kts 302°
2026-05-05 11:57 41.62179 28.16639 17945 ft 405 kts 302°
2026-05-05 11:57 41.63703 28.13426 18670 ft 409 kts 302°
2026-05-05 11:57 41.65221 28.10220 19367 ft 413 kts 302°
2026-05-05 11:57 41.66774 28.06938 20053 ft 418 kts 302°
2026-05-05 11:58 41.68339 28.03626 20699 ft 423 kts 302°
2026-05-05 11:58 41.69905 28.00311 21335 ft 427 kts 302°
2026-05-05 11:58 41.71491 27.96947 21965 ft 431 kts 302°
2026-05-05 11:58 41.73105 27.93520 22570 ft 436 kts 302°
2026-05-05 11:59 41.74735 27.90057 23164 ft 440 kts 302°
2026-05-05 11:59 41.76359 27.86601 23767 ft 444 kts 302°
2026-05-05 11:59 41.78020 27.83063 24314 ft 448 kts 302°
2026-05-05 11:59 41.79691 27.79500 24883 ft 452 kts 302°
2026-05-05 12:00 41.81348 27.75959 25435 ft 455 kts 302°
2026-05-05 12:00 41.83049 27.72324 25952 ft 459 kts 302°
2026-05-05 12:00 41.84755 27.68672 26407 ft 464 kts 302°
2026-05-05 12:00 41.86462 27.65015 26898 ft 468 kts 302°
2026-05-05 12:01 41.88199 27.61287 27425 ft 471 kts 302°
2026-05-05 12:01 41.89951 27.57524 27944 ft 473 kts 302°
2026-05-05 12:01 41.91681 27.53803 28403 ft 476 kts 302°
2026-05-05 12:01 41.93446 27.49999 28821 ft 480 kts 302°
2026-05-05 12:02 41.95234 27.46145 29184 ft 485 kts 302°
2026-05-05 12:02 41.97001 27.42330 29558 ft 488 kts 302°
2026-05-05 12:02 41.98795 27.38451 30062 ft 488 kts 302°
2026-05-05 12:02 42.00590 27.34564 30684 ft 485 kts 302°
2026-05-05 12:03 42.02370 27.30706 31316 ft 481 kts 302°
2026-05-05 12:03 42.04118 27.26914 31805 ft 481 kts 301°
2026-05-05 12:03 42.05910 27.23087 32190 ft 482 kts 304°
2026-05-05 12:03 42.07876 27.19486 32601 ft 482 kts 310°
2026-05-05 12:04 42.10090 27.16100 33114 ft 479 kts 312°
2026-05-05 12:04 42.12334 27.12778 33610 ft 477 kts 312°
2026-05-05 12:04 42.14575 27.09476 34008 ft 477 kts 312°
2026-05-05 12:04 42.16807 27.06171 33990 ft 481 kts 312°
2026-05-05 12:05 42.21260 26.99507 33994 ft 477 kts 311°
2026-05-05 12:05 42.25685 26.92820 34000 ft 473 kts 311°
2026-05-05 12:06 42.30060 26.86188 33999 ft 472 kts 311°
2026-05-05 12:06 42.34418 26.79570 34005 ft 472 kts 311°
2026-05-05 12:07 42.38768 26.72949 34004 ft 473 kts 311°
2026-05-05 12:07 42.43148 26.66270 34006 ft 475 kts 311°
2026-05-05 12:08 42.47523 26.59582 34004 ft 476 kts 311°
2026-05-05 12:08 42.51927 26.52834 34003 ft 477 kts 311°
2026-05-05 12:09 42.55808 26.45612 33999 ft 477 kts 299°
2026-05-05 12:09 42.58939 26.37680 34003 ft 476 kts 297°
2026-05-05 12:10 42.62024 26.29704 34000 ft 476 kts 297°
2026-05-05 12:10 42.65124 26.21759 34000 ft 476 kts 298°
2026-05-05 12:11 42.68228 26.13842 33997 ft 476 kts 298°
2026-05-05 12:11 42.71336 26.05910 34007 ft 477 kts 298°
2026-05-05 12:12 42.74450 25.97938 33993 ft 479 kts 298°
2026-05-05 12:12 42.77578 25.89905 34008 ft 480 kts 297°
2026-05-05 12:13 42.80708 25.81842 34008 ft 481 kts 297°
2026-05-05 12:13 42.83820 25.73803 34005 ft 481 kts 297°
2026-05-05 12:14 42.86938 25.65723 34004 ft 480 kts 297°
2026-05-05 12:14 42.90036 25.57675 33994 ft 479 kts 297°
2026-05-05 12:15 42.93123 25.49633 33998 ft 477 kts 297°
2026-05-05 12:15 42.96192 25.41614 34001 ft 476 kts 297°
2026-05-05 12:16 42.99230 25.33656 34006 ft 475 kts 297°
2026-05-05 12:16 43.02277 25.25650 34000 ft 475 kts 297°
2026-05-05 12:17 43.05325 25.17617 34002 ft 475 kts 297°
2026-05-05 12:17 43.08365 25.09586 34004 ft 475 kts 297°
2026-05-05 12:18 43.11398 25.01550 33998 ft 476 kts 297°
2026-05-05 12:18 43.14268 24.93410 33990 ft 476 kts 294°
2026-05-05 12:19 43.16895 24.85094 34004 ft 476 kts 293°
2026-05-05 12:19 43.19492 24.76759 34003 ft 476 kts 293°
2026-05-05 12:20 43.22099 24.68440 34000 ft 476 kts 293°
2026-05-05 12:20 43.24718 24.60108 34000 ft 476 kts 293°
2026-05-05 12:21 43.27334 24.51776 34001 ft 476 kts 293°
2026-05-05 12:21 43.29947 24.43417 34002 ft 475 kts 293°
2026-05-05 12:22 43.32542 24.35091 34002 ft 475 kts 293°
2026-05-05 12:22 43.35130 24.26760 34001 ft 475 kts 293°
2026-05-05 12:23 43.37724 24.18383 34003 ft 474 kts 293°
2026-05-05 12:23 43.40302 24.10030 33998 ft 474 kts 292°
2026-05-05 12:24 43.42868 24.01691 34001 ft 474 kts 292°
2026-05-05 12:24 43.45426 23.93347 34001 ft 474 kts 292°
2026-05-05 12:25 43.47987 23.84969 34000 ft 474 kts 292°
2026-05-05 12:25 43.50537 23.76602 34004 ft 474 kts 292°
2026-05-05 12:26 43.53065 23.68276 34001 ft 474 kts 292°
2026-05-05 12:26 43.55605 23.59887 34003 ft 474 kts 292°
2026-05-05 12:27 43.58137 23.51496 34000 ft 474 kts 292°
2026-05-05 12:27 43.60672 23.43068 34001 ft 474 kts 292°
2026-05-05 12:28 43.63190 23.34667 34003 ft 474 kts 292°
2026-05-05 12:28 43.65706 23.26247 34001 ft 474 kts 292°
2026-05-05 12:29 43.68214 23.17825 34003 ft 474 kts 292°
2026-05-05 12:29 43.70718 23.09387 34003 ft 474 kts 292°
2026-05-05 12:30 43.73209 23.00967 34000 ft 474 kts 292°
2026-05-05 12:30 43.75702 22.92511 34004 ft 474 kts 292°
2026-05-05 12:31 43.78189 22.84049 34000 ft 474 kts 292°
2026-05-05 12:31 43.80663 22.75599 34003 ft 474 kts 292°
2026-05-05 12:32 43.83141 22.67112 33999 ft 475 kts 292°
2026-05-05 12:32 43.85600 22.58658 34004 ft 475 kts 292°
2026-05-05 12:33 43.88060 22.50177 34001 ft 475 kts 291°
2026-05-05 12:33 43.90693 22.41728 33998 ft 475 kts 298°
2026-05-05 12:34 43.94288 22.34085 34006 ft 475 kts 309°
2026-05-05 12:34 43.98574 22.27113 34000 ft 475 kts 311°
2026-05-05 12:35 44.02932 22.20168 34000 ft 475 kts 310°
2026-05-05 12:35 44.07250 22.13212 33999 ft 476 kts 310°
2026-05-05 12:36 44.11540 22.06227 34003 ft 476 kts 310°
2026-05-05 12:36 44.15840 21.99193 33998 ft 477 kts 310°
2026-05-05 12:37 44.20139 21.92141 34003 ft 478 kts 310°
2026-05-05 12:37 44.24439 21.85071 34000 ft 479 kts 310°
2026-05-05 12:38 44.28735 21.77994 34006 ft 479 kts 310°
2026-05-05 12:38 44.33035 21.70893 33998 ft 479 kts 310°
2026-05-05 12:39 44.36610 21.64975 34006 ft 479 kts 310°
2026-05-05 12:39 44.41595 21.56703 34001 ft 478 kts 310°
2026-05-05 12:40 44.45154 21.50781 34002 ft 477 kts 310°
2026-05-05 12:40 44.49413 21.43679 34003 ft 475 kts 310°
2026-05-05 12:41 44.53655 21.36589 34000 ft 474 kts 310°
2026-05-05 12:41 44.57890 21.29492 33998 ft 473 kts 309°
2026-05-05 12:42 44.62099 21.22421 34000 ft 472 kts 309°
2026-05-05 12:42 44.66297 21.15350 34003 ft 472 kts 309°
2026-05-05 12:43 44.70494 21.08265 34003 ft 472 kts 309°
2026-05-05 12:43 44.74692 21.01159 34003 ft 473 kts 309°
2026-05-05 12:44 44.78886 20.94042 33999 ft 473 kts 309°
2026-05-05 12:44 44.83083 20.86903 34001 ft 474 kts 309°
2026-05-05 12:45 44.87295 20.79720 34003 ft 474 kts 309°
2026-05-05 12:45 44.91485 20.72556 34001 ft 474 kts 309°
2026-05-05 12:46 44.95668 20.65386 34000 ft 474 kts 309°
2026-05-05 12:46 44.99857 20.58189 34002 ft 474 kts 309°
2026-05-05 12:47 45.04042 20.50978 33999 ft 474 kts 309°
2026-05-05 12:47 45.08228 20.43748 34002 ft 474 kts 309°
2026-05-05 12:48 45.12388 20.36545 34000 ft 474 kts 309°
2026-05-05 12:48 45.16541 20.29336 34001 ft 474 kts 309°
2026-05-05 12:49 45.20717 20.22068 34000 ft 474 kts 309°
2026-05-05 12:49 45.24866 20.14829 34003 ft 473 kts 309°
2026-05-05 12:50 45.28999 20.07598 34002 ft 473 kts 309°
2026-05-05 12:50 45.33147 20.00323 34001 ft 473 kts 309°
2026-05-05 12:51 45.37275 19.93065 34001 ft 473 kts 309°
2026-05-05 12:51 45.41413 19.85769 34002 ft 473 kts 309°
2026-05-05 12:52 45.45537 19.78481 34002 ft 474 kts 308°
2026-05-05 12:52 45.49674 19.71149 34004 ft 473 kts 308°
2026-05-05 12:53 45.53787 19.63840 34001 ft 474 kts 308°
2026-05-05 12:53 45.57930 19.56461 34000 ft 474 kts 308°
2026-05-05 12:54 45.64091 19.45450 34002 ft 474 kts 308°
2026-05-05 12:55 45.68195 19.38091 34000 ft 474 kts 308°
2026-05-05 12:55 45.72289 19.30732 33998 ft 474 kts 308°
2026-05-05 12:56 45.76392 19.23336 34003 ft 473 kts 308°
2026-05-05 12:56 45.80482 19.15944 34000 ft 473 kts 308°
2026-05-05 12:57 45.84566 19.08543 34003 ft 473 kts 308°
2026-05-05 12:57 45.88641 19.01139 33999 ft 473 kts 308°
2026-05-05 12:58 45.92691 18.93732 34005 ft 473 kts 306°
2026-05-05 12:58 45.96229 18.85757 34002 ft 473 kts 300°
2026-05-05 12:59 45.99537 18.77602 34001 ft 473 kts 300°
2026-05-05 12:59 46.02868 18.69387 34003 ft 473 kts 300°
2026-05-05 13:00 46.07859 18.57168 34002 ft 474 kts 300°
2026-05-05 13:01 46.14552 18.40753 34002 ft 474 kts 300°
2026-05-05 13:01 46.17869 18.32578 34000 ft 475 kts 300°
2026-05-05 13:02 46.21206 18.24328 34006 ft 475 kts 300°
2026-05-05 13:02 46.24520 18.16111 34003 ft 475 kts 300°
2026-05-05 13:03 46.27841 18.07849 34000 ft 475 kts 300°
2026-05-05 13:03 46.31143 17.99614 34000 ft 474 kts 300°
2026-05-05 13:04 46.34437 17.91370 34001 ft 474 kts 300°
2026-05-05 13:04 46.37737 17.83090 34002 ft 473 kts 300°
2026-05-05 13:05 46.41016 17.74836 34001 ft 473 kts 300°
2026-05-05 13:05 46.44290 17.66570 34001 ft 473 kts 300°
2026-05-05 13:06 46.47553 17.58306 33999 ft 473 kts 300°
2026-05-05 13:06 46.50814 17.50024 34001 ft 473 kts 300°
2026-05-05 13:07 46.54080 17.41702 34004 ft 473 kts 299°
2026-05-05 13:07 46.57331 17.33397 34000 ft 473 kts 299°
2026-05-05 13:08 46.60576 17.25084 34003 ft 473 kts 299°
2026-05-05 13:08 46.63824 17.16732 34000 ft 473 kts 299°
2026-05-05 13:09 46.67047 17.08418 33999 ft 473 kts 299°
2026-05-05 13:09 46.70271 17.00079 33999 ft 473 kts 299°
2026-05-05 13:10 46.73500 16.91696 34003 ft 473 kts 299°
2026-05-05 13:10 46.76717 16.83322 34004 ft 473 kts 299°
2026-05-05 13:11 46.79919 16.74959 34002 ft 474 kts 299°
2026-05-05 13:11 46.83144 16.66512 34003 ft 474 kts 299°
2026-05-05 13:12 46.86346 16.58098 34001 ft 474 kts 299°
2026-05-05 13:12 46.89544 16.49667 34002 ft 474 kts 299°
2026-05-05 13:13 46.92714 16.41285 33999 ft 474 kts 298°
2026-05-05 13:13 46.95901 16.32828 34003 ft 474 kts 298°
2026-05-05 13:14 46.99086 16.24358 34001 ft 474 kts 298°
2026-05-05 13:14 47.02055 16.15722 33993 ft 474 kts 295°
2026-05-05 13:15 47.04842 16.06973 34004 ft 474 kts 295°
2026-05-05 13:15 47.07626 15.98199 34003 ft 474 kts 295°
2026-05-05 13:16 47.10422 15.89440 34000 ft 474 kts 295°
2026-05-05 13:16 47.13219 15.80675 34003 ft 474 kts 295°
2026-05-05 13:17 47.15995 15.71954 34000 ft 475 kts 295°
2026-05-05 13:17 47.18791 15.63137 34003 ft 475 kts 295°
2026-05-05 13:18 47.21571 15.54335 34000 ft 475 kts 295°
2026-05-05 13:18 47.24355 15.45489 34006 ft 477 kts 295°
2026-05-05 13:19 47.27144 15.36600 34003 ft 478 kts 295°
2026-05-05 13:19 47.29924 15.27705 33999 ft 478 kts 295°
2026-05-05 13:20 47.32682 15.18847 33995 ft 479 kts 294°
2026-05-05 13:20 47.35456 15.09911 34007 ft 479 kts 294°
2026-05-05 13:21 47.37652 15.02834 34004 ft 478 kts 295°
2026-05-05 13:21 47.40977 14.94330 34005 ft 478 kts 303°
2026-05-05 13:22 47.44595 14.86225 34003 ft 479 kts 303°
2026-05-05 13:22 47.48263 14.77994 34005 ft 481 kts 303°
2026-05-05 13:23 47.51915 14.69680 34006 ft 482 kts 303°
2026-05-05 13:23 47.55528 14.61386 33996 ft 483 kts 302°
2026-05-05 13:24 47.59165 14.53004 34003 ft 481 kts 302°
2026-05-05 13:24 47.62794 14.44617 33994 ft 479 kts 302°
2026-05-05 13:25 47.66362 14.36350 33998 ft 478 kts 302°
2026-05-05 13:25 47.69948 14.28016 33996 ft 476 kts 302°
2026-05-05 13:26 47.73497 14.19743 33998 ft 476 kts 302°
2026-05-05 13:26 47.77039 14.11461 34000 ft 475 kts 302°
2026-05-05 13:27 47.80571 14.03177 33998 ft 476 kts 302°
2026-05-05 13:27 47.84112 13.94844 34005 ft 477 kts 302°
2026-05-05 13:28 47.87654 13.86489 34002 ft 478 kts 302°
2026-05-05 13:28 47.91189 13.78120 34005 ft 478 kts 302°
2026-05-05 13:29 47.94147 13.71098 33994 ft 478 kts 302°
2026-05-05 13:29 47.98257 13.61311 34001 ft 476 kts 302°
2026-05-05 13:30 48.01751 13.52963 33998 ft 475 kts 302°
2026-05-05 13:30 48.04667 13.45975 33999 ft 475 kts 302°
2026-05-05 13:31 48.08152 13.37602 34001 ft 474 kts 302°
2026-05-05 13:31 48.11627 13.29223 34005 ft 474 kts 302°
2026-05-05 13:32 48.15101 13.20824 34001 ft 475 kts 301°
2026-05-05 13:32 48.18568 13.12414 34001 ft 475 kts 301°
2026-05-05 13:33 48.22028 13.04019 34001 ft 474 kts 303°
2026-05-05 13:33 48.26083 12.96162 34006 ft 474 kts 311°
2026-05-05 13:34 48.30487 12.88818 34001 ft 474 kts 312°
2026-05-05 13:34 48.34886 12.81461 34001 ft 474 kts 311°
2026-05-05 13:35 48.39263 12.74039 34003 ft 475 kts 311°
2026-05-05 13:35 48.43627 12.66586 34001 ft 475 kts 311°
2026-05-05 13:36 48.47977 12.59130 34003 ft 475 kts 311°
2026-05-05 13:36 48.52331 12.51652 34003 ft 475 kts 311°
2026-05-05 13:37 48.56699 12.44129 34000 ft 475 kts 311°
2026-05-05 13:37 48.61024 12.36660 34003 ft 475 kts 311°
2026-05-05 13:38 48.65267 12.29309 33997 ft 475 kts 311°
2026-05-05 13:38 48.69583 12.21814 34004 ft 474 kts 311°
2026-05-05 13:39 48.73615 12.13945 33993 ft 474 kts 298°
2026-05-05 13:39 48.75946 12.04669 33998 ft 473 kts 281°
2026-05-05 13:40 48.76969 11.94807 34000 ft 473 kts 278°
2026-05-05 13:40 48.77945 11.84924 34001 ft 474 kts 279°
2026-05-05 13:41 48.78978 11.75107 34005 ft 474 kts 279°
2026-05-05 13:41 48.80028 11.65232 34001 ft 474 kts 279°
2026-05-05 13:42 48.81058 11.55360 34003 ft 474 kts 279°
2026-05-05 13:42 48.82073 11.45499 34000 ft 474 kts 279°
2026-05-05 13:43 48.83083 11.35628 34003 ft 474 kts 279°
2026-05-05 13:43 48.84322 11.25875 33985 ft 461 kts 290°
2026-05-05 13:44 48.85668 11.21564 34002 ft 448 kts 301°
2026-05-05 13:44 48.87449 11.17692 33624 ft 446 kts 311°
2026-05-05 13:44 48.89674 11.14429 33207 ft 441 kts 319°
2026-05-05 13:44 48.91956 11.11421 32773 ft 437 kts 319°
2026-05-05 13:45 48.94241 11.08334 32337 ft 433 kts 317°
2026-05-05 13:45 48.96438 11.05294 31920 ft 429 kts 317°
2026-05-05 13:45 48.98628 11.02224 31519 ft 425 kts 317°
2026-05-05 13:45 49.00777 10.99200 31110 ft 421 kts 317°
2026-05-05 13:46 49.02932 10.96166 30694 ft 417 kts 317°
2026-05-05 13:46 49.05034 10.93209 30289 ft 414 kts 317°
2026-05-05 13:46 49.07155 10.90224 29874 ft 410 kts 317°
2026-05-05 13:46 49.09245 10.87278 29463 ft 407 kts 317°
2026-05-05 13:47 49.11001 10.84798 29124 ft 405 kts 317°
2026-05-05 13:47 49.13082 10.81855 28729 ft 409 kts 317°
2026-05-05 13:47 49.15153 10.78921 28321 ft 414 kts 317°
2026-05-05 13:47 49.17297 10.75882 27921 ft 418 kts 317°
2026-05-05 13:48 49.19421 10.72868 27468 ft 422 kts 317°
2026-05-05 13:48 49.21554 10.69719 27045 ft 425 kts 314°
2026-05-05 13:48 49.23603 10.66488 26620 ft 429 kts 313°
2026-05-05 13:48 49.25661 10.63178 26187 ft 432 kts 313°
2026-05-05 13:49 49.27746 10.59830 25737 ft 434 kts 313°
2026-05-05 13:49 49.29852 10.56474 25297 ft 437 kts 314°
2026-05-05 13:49 49.31977 10.53109 24841 ft 439 kts 314°
2026-05-05 13:49 49.34085 10.49775 24404 ft 440 kts 314°
2026-05-05 13:50 49.36211 10.46384 23941 ft 441 kts 312°
2026-05-05 13:50 49.38159 10.42692 23489 ft 442 kts 306°
2026-05-05 13:50 49.39901 10.38832 23014 ft 432 kts 303°
2026-05-05 13:50 49.41520 10.35067 22568 ft 411 kts 303°
2026-05-05 13:51 49.43082 10.31454 22183 ft 412 kts 303°
2026-05-05 13:51 49.44694 10.27797 21770 ft 415 kts 304°
2026-05-05 13:51 49.46341 10.24126 21356 ft 418 kts 304°
2026-05-05 13:51 49.47995 10.20471 20929 ft 420 kts 304°
2026-05-05 13:52 49.49686 10.16749 20486 ft 423 kts 305°
2026-05-05 13:52 49.51373 10.13028 20053 ft 425 kts 304°
2026-05-05 13:52 49.53069 10.09279 19618 ft 426 kts 304°
2026-05-05 13:52 49.54751 10.05554 19179 ft 428 kts 304°
2026-05-05 13:53 49.56452 10.01780 18739 ft 429 kts 304°
2026-05-05 13:53 49.58148 9.98016 18392 ft 427 kts 304°
2026-05-05 13:53 49.59846 9.94239 18037 ft 426 kts 304°
2026-05-05 13:53 49.61498 9.90557 17643 ft 419 kts 304°
2026-05-05 13:54 49.63151 9.86871 17189 ft 413 kts 304°
2026-05-05 13:54 49.64776 9.83238 16682 ft 407 kts 304°
2026-05-05 13:54 49.66372 9.79669 16165 ft 401 kts 304°
2026-05-05 13:54 49.67944 9.76145 15750 ft 394 kts 304°
2026-05-05 13:55 49.69467 9.72731 15353 ft 387 kts 304°
2026-05-05 13:55 49.70979 9.69335 14954 ft 380 kts 304°
2026-05-05 13:55 49.72467 9.65989 14560 ft 374 kts 304°
2026-05-05 13:55 49.73928 9.62697 14180 ft 367 kts 304°
2026-05-05 13:56 49.75346 9.59501 13803 ft 361 kts 304°
2026-05-05 13:56 49.76765 9.56298 13435 ft 355 kts 304°
2026-05-05 13:56 49.78138 9.53195 13078 ft 350 kts 304°
2026-05-05 13:56 49.79454 9.50215 12733 ft 344 kts 304°
2026-05-05 13:57 49.80800 9.47167 12385 ft 339 kts 304°
2026-05-05 13:57 49.82122 9.44166 12032 ft 334 kts 304°
2026-05-05 13:57 49.83397 9.41272 11694 ft 328 kts 304°
2026-05-05 13:57 49.84696 9.38320 11371 ft 323 kts 304°
2026-05-05 13:58 49.85928 9.35471 11041 ft 317 kts 300°
2026-05-05 13:58 49.86775 9.32426 10907 ft 305 kts 286°
2026-05-05 13:58 49.87353 9.29293 10815 ft 300 kts 285°
2026-05-05 13:58 49.87929 9.26145 10717 ft 305 kts 286°
2026-05-05 13:59 49.89118 9.19775 10507 ft 309 kts 286°
2026-05-05 13:59 49.89722 9.16581 10402 ft 308 kts 286°
2026-05-05 14:00 49.90927 9.10241 10191 ft 300 kts 286°
2026-05-05 14:00 49.91313 9.08210 10111 ft 292 kts 286°
2026-05-05 14:00 49.91945 9.04871 10001 ft 279 kts 286°
2026-05-05 14:00 49.92492 9.01973 9905 ft 276 kts 286°
2026-05-05 14:01 49.93030 8.99118 9819 ft 274 kts 286°
2026-05-05 14:01 49.93561 8.96310 9731 ft 273 kts 286°
2026-05-05 14:01 49.94338 8.93669 9610 ft 269 kts 309°
2026-05-05 14:01 49.95816 8.91908 9555 ft 273 kts 337°
2026-05-05 14:02 49.97681 8.91297 9471 ft 276 kts 360°
2026-05-05 14:02 49.99610 8.91405 9397 ft 278 kts
2026-05-05 14:02 50.01487 8.91834 9254 ft 277 kts 21°
2026-05-05 14:02 50.03058 8.93512 9188 ft 277 kts 49°
2026-05-05 14:03 50.04041 8.96070 9099 ft 276 kts 68°
2026-05-05 14:03 50.04707 8.98889 9020 ft 278 kts 70°
2026-05-05 14:03 50.05353 9.01745 8909 ft 280 kts 70°
2026-05-05 14:03 50.06006 9.04606 8805 ft 280 kts 70°
2026-05-05 14:04 50.06660 9.07447 8714 ft 277 kts 70°
2026-05-05 14:04 50.07302 9.10221 8611 ft 273 kts 70°
2026-05-05 14:04 50.07946 9.12995 8524 ft 272 kts 70°
2026-05-05 14:04 50.08592 9.15776 8443 ft 272 kts 70°
2026-05-05 14:05 50.09237 9.18551 8351 ft 273 kts 70°
2026-05-05 14:05 50.09887 9.21343 8253 ft 273 kts 70°
2026-05-05 14:05 50.10526 9.24105 8167 ft 274 kts 70°
2026-05-05 14:05 50.11176 9.26908 8083 ft 274 kts 70°
2026-05-05 14:06 50.11825 9.29715 7993 ft 275 kts 70°
2026-05-05 14:06 50.12466 9.32491 7883 ft 276 kts 70°
2026-05-05 14:06 50.13114 9.35297 7778 ft 275 kts 70°
2026-05-05 14:06 50.13761 9.38104 7708 ft 273 kts 70°
2026-05-05 14:07 50.14403 9.40896 7611 ft 272 kts 70°
2026-05-05 14:07 50.15033 9.43637 7503 ft 271 kts 70°
2026-05-05 14:07 50.15672 9.46401 7433 ft 268 kts 68°
2026-05-05 14:07 50.16707 9.48743 7319 ft 264 kts 37°
2026-05-05 14:08 50.18370 9.49940 7247 ft 264 kts
2026-05-05 14:08 50.20175 9.49799 7171 ft 265 kts 342°
2026-05-05 14:08 50.21800 9.48418 7087 ft 267 kts 317°
2026-05-05 14:08 50.22931 9.46161 6982 ft 263 kts 302°
2026-05-05 14:09 50.23913 9.43771 6924 ft 266 kts 302°
2026-05-05 14:09 50.24653 9.41159 6783 ft 264 kts 277°
2026-05-05 14:09 50.24527 9.38311 6715 ft 264 kts 253°
2026-05-05 14:09 50.23917 9.35588 6655 ft 266 kts 250°
2026-05-05 14:10 50.23279 9.32860 6548 ft 267 kts 250°
2026-05-05 14:10 50.22650 9.30181 6441 ft 264 kts 250°
2026-05-05 14:10 50.22023 9.27502 6349 ft 261 kts 250°
2026-05-05 14:10 50.21405 9.24845 6271 ft 259 kts 250°
2026-05-05 14:11 50.20789 9.22190 6194 ft 260 kts 250°
2026-05-05 14:11 50.20177 9.19557 6078 ft 260 kts 250°
2026-05-05 14:11 50.19562 9.16907 6006 ft 260 kts 250°
2026-05-05 14:11 50.18946 9.14247 5921 ft 260 kts 250°
2026-05-05 14:12 50.18326 9.11587 5841 ft 260 kts 250°
2026-05-05 14:12 50.17710 9.08954 5739 ft 260 kts 250°
2026-05-05 14:12 50.17089 9.06293 5656 ft 260 kts 250°
2026-05-05 14:12 50.16469 9.03638 5564 ft 257 kts 250°
2026-05-05 14:13 50.15873 9.01091 5462 ft 245 kts 250°
2026-05-05 14:13 50.15307 8.98680 5437 ft 229 kts 250°
2026-05-05 14:13 50.14789 8.96426 5388 ft 212 kts 251°
2026-05-05 14:13 50.14308 8.94239 5403 ft 215 kts 250°
2026-05-05 14:14 50.13808 8.92059 5346 ft 213 kts 250°
2026-05-05 14:14 50.13304 8.89917 5242 ft 204 kts 250°
2026-05-05 14:14 50.12825 8.87897 5179 ft 196 kts 250°
2026-05-05 14:14 50.12341 8.85868 5209 ft 210 kts 250°
2026-05-05 14:15 50.11820 8.83677 5198 ft 217 kts 250°
2026-05-05 14:15 50.11292 8.81465 5181 ft 216 kts 250°
2026-05-05 14:15 50.10760 8.79241 5183 ft 220 kts 250°
2026-05-05 14:15 50.10225 8.76989 5164 ft 222 kts 250°
2026-05-05 14:16 50.09693 8.74760 5016 ft 222 kts 250°
2026-05-05 14:16 50.09156 8.72514 4725 ft 219 kts 250°
2026-05-05 14:16 50.08625 8.70294 4362 ft 217 kts 250°
2026-05-05 14:16 50.08106 8.68131 4077 ft 213 kts 250°
2026-05-05 14:17 50.07610 8.66036 3826 ft 205 kts 250°
2026-05-05 14:17 50.07125 8.64009 3699 ft 193 kts 250°
2026-05-05 14:17 50.06665 8.62078 3543 ft 189 kts 250°
2026-05-05 14:17 50.06191 8.60101 3885 ft 205 kts 250°
2026-05-05 14:18 50.05677 8.57942 4266 ft 220 kts 250°
2026-05-05 14:18 50.05131 8.55653 4826 ft 231 kts 250°
2026-05-05 14:18 50.04527 8.53134 5196 ft 258 kts 250°
2026-05-05 14:18 50.03899 8.50524 5162 ft 254 kts 250°
2026-05-05 14:19 50.03272 8.47909 5179 ft 259 kts 250°
2026-05-05 14:19 50.03007 8.45229 5181 ft 249 kts 279°
2026-05-05 14:19 50.03471 8.42654 5167 ft 246 kts 288°
2026-05-05 14:19 50.04001 8.40150 5184 ft 247 kts 288°
2026-05-05 14:20 50.04634 8.37668 5152 ft 243 kts 305°
2026-05-05 14:20 50.05904 8.35996 5191 ft 242 kts 333°
2026-05-05 14:20 50.07451 8.34862 5190 ft 250 kts 334°
2026-05-05 14:20 50.08503 8.34090 5185 ft 251 kts 334°
2026-05-05 14:21 50.10584 8.32566 5158 ft 247 kts 334°
2026-05-05 14:21 50.11617 8.31805 5181 ft 245 kts 334°
2026-05-05 14:21 50.13156 8.30669 5164 ft 244 kts 334°
2026-05-05 14:21 50.15226 8.29146 5154 ft 249 kts 334°
2026-05-05 14:22 50.16802 8.27994 5162 ft 247 kts 337°
2026-05-05 14:22 50.17891 8.27531 5165 ft 248 kts 357°
2026-05-05 14:22 50.19585 8.28075 5196 ft 252 kts 28°
2026-05-05 14:22 50.20858 8.29889 5200 ft 254 kts 58°
2026-05-05 14:23 50.21475 8.32446 5186 ft 251 kts 78°
2026-05-05 14:23 50.21802 8.35129 5186 ft 252 kts 79°
2026-05-05 14:23 50.22115 8.37827 5168 ft 251 kts 79°
2026-05-05 14:23 50.22423 8.40475 5181 ft 251 kts 79°
2026-05-05 14:24 50.22732 8.43134 5154 ft 252 kts 79°
2026-05-05 14:24 50.23048 8.45863 5177 ft 251 kts 79°
2026-05-05 14:24 50.23359 8.48512 5174 ft 249 kts 79°
2026-05-05 14:24 50.23674 8.51187 5179 ft 249 kts 79°
2026-05-05 14:25 50.23985 8.53837 5168 ft 248 kts 80°
2026-05-05 14:25 50.24294 8.56471 5177 ft 248 kts 79°
2026-05-05 14:25 50.24610 8.59136 5170 ft 250 kts 79°
2026-05-05 14:25 50.24928 8.61825 5168 ft 250 kts 80°
2026-05-05 14:26 50.25241 8.64476 5165 ft 252 kts 79°
2026-05-05 14:26 50.25560 8.67179 5186 ft 252 kts 79°
2026-05-05 14:26 50.25874 8.69850 5175 ft 252 kts 79°
2026-05-05 14:26 50.26191 8.72547 5168 ft 252 kts 79°
2026-05-05 14:27 50.26507 8.75247 5165 ft 252 kts 79°
2026-05-05 14:27 50.26823 8.77942 5175 ft 251 kts 79°
2026-05-05 14:27 50.27134 8.80612 5164 ft 250 kts 79°
2026-05-05 14:27 50.27446 8.83300 5162 ft 249 kts 79°
2026-05-05 14:28 50.27805 8.85925 5154 ft 248 kts 72°
2026-05-05 14:28 50.28393 8.88439 5187 ft 248 kts 68°
2026-05-05 14:28 50.29023 8.90958 5168 ft 247 kts 69°
2026-05-05 14:28 50.29643 8.93487 5186 ft 250 kts 69°
2026-05-05 14:29 50.30164 8.96063 5162 ft 251 kts 84°
2026-05-05 14:29 50.29895 8.98706 5142 ft 245 kts 118°
2026-05-05 14:29 50.28779 9.00670 5183 ft 242 kts 147°
2026-05-05 14:29 50.27292 9.01824 5165 ft 239 kts 159°
2026-05-05 14:30 50.25727 9.02715 5188 ft 238 kts 161°
2026-05-05 14:30 50.24146 9.03599 5189 ft 245 kts 161°
2026-05-05 14:30 50.22533 9.04369 5162 ft 240 kts 174°
2026-05-05 14:30 50.20919 9.04008 5190 ft 238 kts 204°
2026-05-05 14:31 50.19511 9.02601 5166 ft 239 kts 219°
2026-05-05 14:31 50.18263 9.00959 5160 ft 230 kts 221°
2026-05-05 14:31 50.17068 8.99361 5158 ft 226 kts 221°
2026-05-05 14:31 50.15874 8.97778 5163 ft 224 kts 221°
2026-05-05 14:32 50.14823 8.96018 5144 ft 220 kts 243°
2026-05-05 14:32 50.14258 8.93838 5195 ft 222 kts 250°
2026-05-05 14:32 50.13705 8.91570 5159 ft 220 kts 249°
2026-05-05 14:32 50.13179 8.89389 5122 ft 217 kts 250°
2026-05-05 14:33 50.12651 8.87176 4837 ft 212 kts 250°
2026-05-05 14:33 50.12156 8.85094 4580 ft 201 kts 250°
2026-05-05 14:33 50.11682 8.83101 4297 ft 189 kts 250°
2026-05-05 14:33 50.11239 8.81242 4044 ft 176 kts 250°
2026-05-05 14:34 50.10829 8.79531 3808 ft 165 kts 250°
2026-05-05 14:34 50.10446 8.77916 3609 ft 152 kts 250°
2026-05-05 14:34 50.10082 8.76395 3450 ft 149 kts 250°
2026-05-05 14:34 50.09717 8.74858 3217 ft 153 kts 250°
2026-05-05 14:35 50.09345 8.73307 3023 ft 151 kts 250°
2026-05-05 14:35 50.08982 8.71792 2818 ft 150 kts 250°
2026-05-05 14:35 50.08618 8.70266 2617 ft 150 kts 250°
2026-05-05 14:35 50.08243 8.68738 2420 ft 150 kts 249°
2026-05-05 14:36 50.07882 8.67192 2216 ft 153 kts 250°
2026-05-05 14:36 50.07524 8.65675 2010 ft 149 kts 249°
2026-05-05 14:36 50.07162 8.64160 1827 ft 150 kts 250°
2026-05-05 14:36 50.06798 8.62634 1621 ft 150 kts 250°
2026-05-05 14:37 50.06433 8.61115 1421 ft 149 kts 249°
2026-05-05 14:37 50.06074 8.59594 1205 ft 149 kts 250°
2026-05-05 14:37 50.05717 8.58107 1009 ft 147 kts 250°
2026-05-05 14:37 50.05357 8.56608 809 ft 148 kts 249°
2026-05-05 14:38 50.05003 8.55099 629 ft 148 kts 250°
2026-05-05 14:38 50.04643 8.53622 424 ft 148 kts 250°
2026-05-05 14:38 50.04291 8.52137 353 ft 138 kts 250°
2026-05-05 14:38 50.04027 8.51042 330 ft 63 kts 250°
2026-05-05 14:39 50.03958 8.50760 327 ft 15 kts 249°
2026-05-05 14:39 50.03921 8.50605 324 ft 16 kts 250°
2026-05-05 14:39 50.03867 8.50457 322 ft 16 kts 234°
2026-05-05 14:39 50.03810 8.50346 321 ft 7 kts 225°
2026-05-05 14:40 50.03776 8.50297 320 ft 7 kts 222°
2026-05-05 14:40 50.03742 8.50252 322 ft 5 kts 220°
2026-05-05 14:40 50.03712 8.50214 319 ft 5 kts 217°
2026-05-05 14:40 50.03710 8.50211 319 ft 0 kts 217°
2026-05-05 14:42 50.03686 8.50192 321 ft 0 kts 198°
2026-05-05 14:42 50.03663 8.50191 324 ft 8 kts 173°
2026-05-05 14:42 50.03633 8.50261 328 ft 9 kts 98°
2026-05-05 14:42 50.03644 8.50352 327 ft 8 kts 71°
2026-05-05 14:43 50.03659 8.50420 331 ft 6 kts 71°
2026-05-05 14:43 50.03675 8.50486 330 ft 7 kts 69°
2026-05-05 14:43 50.03691 8.50552 331 ft 7 kts 69°
2026-05-05 14:43 50.03707 8.50618 333 ft 7 kts 70°
2026-05-05 14:44 50.03723 8.50684 331 ft 7 kts 70°
2026-05-05 14:44 50.03739 8.50750 331 ft 7 kts 70°
2026-05-05 14:44 50.03756 8.50818 333 ft 9 kts 69°
2026-05-05 14:44 50.03780 8.50921 334 ft 10 kts 70°
2026-05-05 14:45 50.03804 8.51021 336 ft 10 kts 70°
2026-05-05 14:45 50.03827 8.51123 334 ft 10 kts 71°
2026-05-05 14:45 50.03852 8.51223 335 ft 10 kts 68°
2026-05-05 14:45 50.03878 8.51327 337 ft 10 kts 69°
2026-05-05 14:46 50.03903 8.51432 337 ft 10 kts 70°
2026-05-05 14:46 50.03928 8.51536 336 ft 10 kts 70°
2026-05-05 14:46 50.03952 8.51641 340 ft 10 kts 69°
2026-05-05 14:46 50.03978 8.51748 338 ft 11 kts 70°
2026-05-05 14:47 50.04004 8.51856 351 ft 11 kts 69°
2026-05-05 14:47 50.04029 8.51962 350 ft 11 kts 68°
2026-05-05 14:47 50.04055 8.52071 354 ft 11 kts 69°
2026-05-05 14:47 50.04081 8.52179 354 ft 11 kts 70°
2026-05-05 14:48 50.04107 8.52287 356 ft 11 kts 70°
2026-05-05 14:48 50.04132 8.52394 353 ft 11 kts 70°
2026-05-05 14:48 50.04159 8.52502 358 ft 11 kts 69°
2026-05-05 14:48 50.04183 8.52609 361 ft 11 kts 71°
2026-05-05 14:49 50.04210 8.52717 356 ft 11 kts 70°
2026-05-05 14:49 50.04236 8.52825 357 ft 11 kts 70°
2026-05-05 14:49 50.04261 8.52932 364 ft 11 kts 70°
2026-05-05 14:49 50.04285 8.53041 367 ft 11 kts 69°
2026-05-05 14:50 50.04313 8.53148 367 ft 11 kts 69°
2026-05-05 14:50 50.04338 8.53255 369 ft 11 kts 69°
2026-05-05 14:50 50.04364 8.53363 377 ft 11 kts 69°
2026-05-05 14:50 50.04388 8.53472 381 ft 11 kts 75°
2026-05-05 14:51 50.04399 8.53586 380 ft 11 kts 83°
2026-05-05 14:51 50.04407 8.53701 380 ft 11 kts 83°
2026-05-05 14:51 50.04415 8.53816 380 ft 11 kts 83°
2026-05-05 14:51 50.04423 8.53936 380 ft 15 kts 84°
2026-05-05 14:52 50.04434 8.54109 380 ft 13 kts 83°
2026-05-05 14:52 50.04442 8.54235 379 ft 12 kts 84°
2026-05-05 14:52 50.04451 8.54370 377 ft 14 kts 86°
2026-05-05 14:52 50.04444 8.54523 376 ft 16 kts 99°
2026-05-05 14:53 50.04404 8.54651 369 ft 12 kts 127°
2026-05-05 14:53 50.04334 8.54752 370 ft 16 kts 148°
2026-05-05 14:53 50.04231 8.54818 363 ft 7 kts 160°
2026-05-05 14:53 50.04180 8.54846 363 ft 9 kts 160°
2026-05-05 14:54 50.04120 8.54880 362 ft 6 kts 159°
2026-05-05 14:54 50.04082 8.54902 356 ft 5 kts 160°
2026-05-05 14:54 50.04051 8.54923 360 ft 5 kts 152°
2026-05-05 14:54 50.04023 8.55007 364 ft 16 kts 90°
2026-05-05 14:55 50.04050 8.55149 359 ft 12 kts 69°
2026-05-05 14:55 50.04078 8.55270 361 ft 9 kts 70°
2026-05-05 14:55 50.04099 8.55356 365 ft 9 kts 70°
2026-05-05 14:55 50.04123 8.55455 364 ft 10 kts 69°
2026-05-05 14:56 50.04147 8.55557 363 ft 10 kts 69°
2026-05-05 14:56 50.04172 8.55661 363 ft 10 kts 68°
2026-05-05 14:56 50.04198 8.55768 365 ft 10 kts 70°
2026-05-05 14:56 50.04223 8.55873 363 ft 10 kts 69°
2026-05-05 14:57 50.04248 8.55980 365 ft 10 kts 70°
2026-05-05 14:57 50.04274 8.56086 365 ft 10 kts 70°
2026-05-05 14:57 50.04299 8.56192 366 ft 10 kts 70°
2026-05-05 14:57 50.04324 8.56298 365 ft 10 kts 70°
2026-05-05 14:58 50.04350 8.56403 362 ft 10 kts 70°
2026-05-05 14:58 50.04375 8.56511 367 ft 11 kts 69°
2026-05-05 14:58 50.04401 8.56619 370 ft 11 kts 70°
2026-05-05 14:58 50.04427 8.56726 365 ft 11 kts 69°
2026-05-05 14:59 50.04452 8.56819 369 ft 7 kts 58°
2026-05-05 14:59 50.04490 8.56862 367 ft 7 kts 22°
2026-05-05 14:59 50.04504 8.56870 366 ft 1 kts 20°
2026-05-05 14:59 50.04525 8.56888 367 ft 2 kts 36°
2026-05-05 15:00 50.04537 8.56906 371 ft 3 kts 48°
2026-05-05 15:00 50.04545 8.56924 368 ft 3 kts 57°
2026-05-05 15:00 50.04563 8.56968 368 ft 4 kts 59°
2026-05-05 15:00 50.04573 8.56995 369 ft 3 kts 60°
2026-05-05 15:01 50.04584 8.57026 369 ft 3 kts 60°
2026-05-05 15:01 50.04585 8.57026 369 ft 0 kts 60°